Simultaneous Nadir Overpasses (SNOs) Predictions

Prediction of SNOs between METOP-A and TERRA Satellite Orbit:

Table of predicted SNOs for the next 14.0 days since TLE Epoch: 6/13/2020
Index Date (METOP-A) Time (METOP-A) Lat,Lon (METOP-A) SZA (METOP-A ) Date (TERRA) Time (TERRA) Lat,Lon (TERRA) SZA (TERRA ) Distance(km) Time Diff (sec)
1 06/15/2020 11:17:49 81.42, 59.64 61.18 06/15/2020 11:18:44 81.41, 59.73 61.21 1.84 55
2 06/15/2020 12:08:29 -81.41,-132.75 118.80 06/15/2020 12:08:11 -81.40,-132.73 118.81 0.94 18
3 06/18/2020 06:52:10 81.41, 126.31 61.11 06/18/2020 06:52:59 81.42, 126.35 61.14 0.97 49
4 06/18/2020 07:42:50 -81.40, -66.07 118.87 06/18/2020 07:42:26 -81.41, -66.09 118.88 1.14 24
5 06/21/2020 02:26:31 81.41,-167.43 61.05 06/21/2020 02:27:14 81.41,-167.44 61.07 0.71 43
6 06/21/2020 03:17:11 -81.41, 0.21 118.92 06/21/2020 03:16:41 -81.41, 0.16 118.94 0.72 30
7 06/23/2020 22:00:52 81.41,-100.78 61.09 06/23/2020 22:01:29 81.41,-100.84 61.10 1.36 37
8 06/23/2020 22:51:33 -81.41, 66.47 118.93 06/23/2020 22:50:57 -81.40, 66.40 118.96 1.85 36
9 06/26/2020 17:35:14 81.41, -34.54 61.14 06/26/2020 17:35:45 81.40, -34.65 61.13 1.95 31




NCC Satellite Simultaneous Nadir Overpasses (SNOs) Prediction Service
